Погода в Порт-Харкорте

Нигерия     4°47′19″N   7°03′10″E
темп.,
°C
ветер,
м/с
пор.,
м/с
влажн.,
%
обл.,
%
осадки,
мм/ч
давл.,
гПа
погр.,
м
14 мая, пт
пт1401:00+26юз1187100 0.0 101117
04:00+25з118953 0.0 101011
07:00+25ссв11875 0.0 101148
10:00+31ю126125 0.0 10121064
13:00+33ююв335056 0.0 10091808
16:00+33ююв4253100 0.0 10071397
19:00+28ю477490 0.0 1009327
22:00+26ююз377976 0.0 1010261
15 мая, сб
сб1501:00+26зюз23835 0.0 101079
04:00+25юз228592 0.0 100959
07:00+26з118356 0.0 101166
10:00+31ююв006070 0.0 10131065
13:00+33ююв225498 0.0 10101473
16:00+31ю546331 0.3 1008746
19:00+28юз367695 0.5 1008313
22:00+27юз2380100 0.0 1011121
16 мая, вс
вс1601:00+27зюз2285100 0.3 101040
04:00+27юз2286100 0.2 100961
07:00+26юв1187100 3.1 101127
10:00+29юз2371100 4.6 1012641
13:00+27ююв4679100 4.8 1010574
16:00+28ююв3472100 0.0 1008604
19:00+26в128367 0.0 101031
22:00+25ю118670 0.1 101214
17 мая, пн
пн1701:00+25ююз118986 0.1 101117
04:00+25ююз1189100 0.1 101018
07:00+26всв128883 0.1 101275
10:00+30юв2269100 1.6 1013911
13:00+32ю4455100 1.8 10111404
16:00+31ююз445895 0.0 10091177
19:00+27ю4778100 0.0 1011296
22:00+26ююз3682100 0.0 1012290
18 мая, вт
вт1801:00+26юз2483100 0.0 1011181
04:00+26юз128468 0.0 101163
07:00+26ююз248681 0.0 1012148
10:00+29ю237094 0.0 1013765
13:00+33ю435474 0.2 10121652
16:00+33ю335492 0.2 10101571
19:00+28ю377639 0.4 1011262
22:00+26юз24855 0.0 1012104